Terug naar catalogus

CZ-6A DEB

ActiefPO
NORAD 61288·DEBRIS·🇨🇳 China

Gelanceerd Aug 6, 2024 vanaf Taiyuan Satellite Launch Center

Loading…

Volgende Passages (komende 24 uur)

TLE

VersSource: Space-Track

Epoch: Sep 14, 2026, 10:50 UTC

1 61288U 24140SZ  26257.45148734  .00002648  00000-0  87057-3 0  9994
2 61288  89.0161 264.4380 0011423  94.7886 265.4619 14.38000659106468

Volg CZ-6A DEB in realtime met AllMySat

Download on the App Store